owner,sensor,date,latitude,longitude,air_temperature,qcFlag 
DISL,ioos:station:DISL:DISL:1,2008-03-01T00:00:00Z,30.2513,-88.0778,16.32,1111122 
DISL,ioos:station:DISL:DISL:1,2008-03-01T00:30:00Z,30.2513,-88.0778,16.28,1111122 
DISL,ioos:station:DISL:DISL:1,2008-03-01T01:00:00Z,30.2513,-88.0778,16.3,1111122 
DISL,ioos:station:DISL:DISL:1,2008-03-01T01:30:00Z,30.2513,-88.0778,16.19,1111122 
DISL,ioos:station:DISL:DISL:1,2008-03-01T02:00:00Z,30.2513,-88.0778,16.03,1111122 
DISL,ioos:station:DISL:DISL:1,2008-03-01T02:30:00Z,30.2513,-88.0778,16.0,1111122 
DISL,ioos:station:DISL:DISL:1,2008-03-01T03:00:00Z,30.2513,-88.0778,15.97,1111122 
DISL,ioos:station:DISL:DISL:1,2008-03-01T03:30:00Z,30.2513,-88.0778,16.13,1111122 
DISL,ioos:station:DISL:DISL:1,2008-03-01T04:00:00Z,30.2513,-88.0778,16.14,1111122 
DISL,ioos:station:DISL:DISL:1,2008-03-01T04:30:00Z,30.2513,-88.0778,16.14,1111122 
DISL,ioos:station:DISL:DISL:1,2008-03-01T05:00:00Z,30.2513,-88.0778,16.02,1111122 
DISL,ioos:station:DISL:DISL:1,2008-03-01T05:30:00Z,30.2513,-88.0778,15.83,1111122 
DISL,ioos:station:DISL:DISL:1,2008-03-01T06:00:00Z,30.2513,-88.0778,15.14,1111122 
DISL,ioos:station:DISL:DISL:1,2008-03-01T06:30:00Z,30.2513,-88.0778,14.58,1111122 
DISL,ioos:station:DISL:DISL:1,2008-03-01T07:00:00Z,30.2513,-88.0778,14.22,1111122 
DISL,ioos:station:DISL:DISL:1,2008-03-01T07:30:00Z,30.2513,-88.0778,13.87,1111122 
DISL,ioos:station:DISL:DISL:1,2008-03-01T08:00:00Z,30.2513,-88.0778,13.79,1111122 
DISL,ioos:station:DISL:DISL:1,2008-03-01T08:30:00Z,30.2513,-88.0778,13.5,1111122 
DISL,ioos:station:DISL:DISL:1,2008-03-01T09:00:00Z,30.2513,-88.0778,13.53,1111122 
DISL,ioos:station:DISL:DISL:1,2008-03-01T09:30:00Z,30.2513,-88.0778,14.23,1111122 
DISL,ioos:station:DISL:DISL:1,2008-03-01T10:00:00Z,30.2513,-88.0778,14.37,1111122 
DISL,ioos:station:DISL:DISL:1,2008-03-01T10:30:00Z,30.2513,-88.0778,13.77,1111122 
DISL,ioos:station:DISL:DISL:1,2008-03-01T11:00:00Z,30.2513,-88.0778,15.01,1111122 
DISL,ioos:station:DISL:DISL:1,2008-03-01T11:30:00Z,30.2513,-88.0778,13.8,1111122 
DISL,ioos:station:DISL:DISL:1,2008-03-01T12:00:00Z,30.2513,-88.0778,13.67,1111122 
DISL,ioos:station:DISL:DISL:1,2008-03-01T12:30:00Z,30.2513,-88.0778,13.29,1111122 
DISL,ioos:station:DISL:DISL:1,2008-03-01T13:00:00Z,30.2513,-88.0778,14.13,1111122 
DISL,ioos:station:DISL:DISL:1,2008-03-01T13:30:00Z,30.2513,-88.0778,14.9,1111122 
DISL,ioos:station:DISL:DISL:1,2008-03-01T14:00:00Z,30.2513,-88.0778,13.78,1111122 
DISL,ioos:station:DISL:DISL:1,2008-03-01T14:30:00Z,30.2513,-88.0778,13.79,1111122 
DISL,ioos:station:DISL:DISL:1,2008-03-01T15:00:00Z,30.2513,-88.0778,13.82,1111122 
DISL,ioos:station:DISL:DISL:1,2008-03-01T15:30:00Z,30.2513,-88.0778,13.84,1111122 
DISL,ioos:station:DISL:DISL:1,2008-03-01T16:00:00Z,30.2513,-88.0778,14.13,1111122 
DISL,ioos:station:DISL:DISL:1,2008-03-01T16:30:00Z,30.2513,-88.0778,14.74,1111122 
DISL,ioos:station:DISL:DISL:1,2008-03-01T17:00:00Z,30.2513,-88.0778,15.13,1111122 
DISL,ioos:station:DISL:DISL:1,2008-03-01T17:30:00Z,30.2513,-88.0778,15.63,1111122 
DISL,ioos:station:DISL:DISL:1,2008-03-01T18:00:00Z,30.2513,-88.0778,16.39,1111122 
DISL,ioos:station:DISL:DISL:1,2008-03-01T18:30:00Z,30.2513,-88.0778,16.82,1111122 
DISL,ioos:station:DISL:DISL:1,2008-03-01T19:00:00Z,30.2513,-88.0778,18.52,1111122 
DISL,ioos:station:DISL:DISL:1,2008-03-01T19:30:00Z,30.2513,-88.0778,19.84,1111122 
DISL,ioos:station:DISL:DISL:1,2008-03-01T20:00:00Z,30.2513,-88.0778,20.43,1111122 
DISL,ioos:station:DISL:DISL:1,2008-03-01T20:30:00Z,30.2513,-88.0778,19.75,1111122 
DISL,ioos:station:DISL:DISL:1,2008-03-01T21:00:00Z,30.2513,-88.0778,20.02,1111122 
DISL,ioos:station:DISL:DISL:1,2008-03-01T21:30:00Z,30.2513,-88.0778,19.66,1111122 
DISL,ioos:station:DISL:DISL:1,2008-03-01T22:00:00Z,30.2513,-88.0778,18.94,1111122 
DISL,ioos:station:DISL:DISL:1,2008-03-01T22:30:00Z,30.2513,-88.0778,18.84,1111122 
DISL,ioos:station:DISL:DISL:1,2008-03-01T23:00:00Z,30.2513,-88.0778,18.36,1111122 
DISL,ioos:station:DISL:DISL:1,2008-03-01T23:30:00Z,30.2513,-88.0778,17.85,1111122 
DISL,ioos:station:DISL:DISL:1,2008-03-02T00:00:00Z,30.2513,-88.0778,17.37,1111122 
DISL,ioos:station:DISL:DISL:1,2008-03-02T00:30:00Z,30.2513,-88.0778,17.12,1111122 
DISL,ioos:station:DISL:DISL:1,2008-03-02T01:00:00Z,30.2513,-88.0778,16.88,1111122 
DISL,ioos:station:DISL:DISL:1,2008-03-02T01:30:00Z,30.2513,-88.0778,16.77,1111122 
DISL,ioos:station:DISL:DISL:1,2008-03-02T02:00:00Z,30.2513,-88.0778,16.66,1111122 
DISL,ioos:station:DISL:DISL:1,2008-03-02T02:30:00Z,30.2513,-88.0778,16.72,1111122 
DISL,ioos:station:DISL:DISL:1,2008-03-02T03:00:00Z,30.2513,-88.0778,16.73,1111122 
DISL,ioos:station:DISL:DISL:1,2008-03-02T03:30:00Z,30.2513,-88.0778,16.4,1111122 
DISL,ioos:station:DISL:DISL:1,2008-03-02T04:00:00Z,30.2513,-88.0778,16.11,1111122 
DISL,ioos:station:DISL:DISL:1,2008-03-02T04:30:00Z,30.2513,-88.0778,16.19,1111122 
DISL,ioos:station:DISL:DISL:1,2008-03-02T05:00:00Z,30.2513,-88.0778,16.29,1111122 
DISL,ioos:station:DISL:DISL:1,2008-03-02T05:30:00Z,30.2513,-88.0778,16.02,1111122 
DISL,ioos:station:DISL:DISL:1,2008-03-02T06:00:00Z,30.2513,-88.0778,16.07,1111122 
DISL,ioos:station:DISL:DISL:1,2008-03-02T06:30:00Z,30.2513,-88.0778,15.41,1111122 
DISL,ioos:station:DISL:DISL:1,2008-03-02T07:00:00Z,30.2513,-88.0778,15.63,1111122 
DISL,ioos:station:DISL:DISL:1,2008-03-02T07:30:00Z,30.2513,-88.0778,15.44,1111122 
DISL,ioos:station:DISL:DISL:1,2008-03-02T08:00:00Z,30.2513,-88.0778,15.47,1111122 
DISL,ioos:station:DISL:DISL:1,2008-03-02T08:30:00Z,30.2513,-88.0778,15.27,1111122 
DISL,ioos:station:DISL:DISL:1,2008-03-02T09:00:00Z,30.2513,-88.0778,14.68,1111122 
DISL,ioos:station:DISL:DISL:1,2008-03-02T09:30:00Z,30.2513,-88.0778,15.02,1111122 
DISL,ioos:station:DISL:DISL:1,2008-03-02T10:00:00Z,30.2513,-88.0778,15.25,1111122 
DISL,ioos:station:DISL:DISL:1,2008-03-02T10:30:00Z,30.2513,-88.0778,15.08,1111122 
DISL,ioos:station:DISL:DISL:1,2008-03-02T11:00:00Z,30.2513,-88.0778,14.92,1111122 
DISL,ioos:station:DISL:DISL:1,2008-03-02T11:30:00Z,30.2513,-88.0778,15.03,1111122 
DISL,ioos:station:DISL:DISL:1,2008-03-02T12:00:00Z,30.2513,-88.0778,15.19,1111122 
DISL,ioos:station:DISL:DISL:1,2008-03-02T12:30:00Z,30.2513,-88.0778,15.24,1111122 
DISL,ioos:station:DISL:DISL:1,2008-03-02T13:00:00Z,30.2513,-88.0778,15.31,1111122 
DISL,ioos:station:DISL:DISL:1,2008-03-02T13:30:00Z,30.2513,-88.0778,15.51,1111122 
DISL,ioos:station:DISL:DISL:1,2008-03-02T14:00:00Z,30.2513,-88.0778,15.46,1111122 
DISL,ioos:station:DISL:DISL:1,2008-03-02T14:30:00Z,30.2513,-88.0778,15.55,1111122 
DISL,ioos:station:DISL:DISL:1,2008-03-02T15:00:00Z,30.2513,-88.0778,15.74,1111122 
DISL,ioos:station:DISL:DISL:1,2008-03-02T15:30:00Z,30.2513,-88.0778,15.76,1111122 
DISL,ioos:station:DISL:DISL:1,2008-03-02T16:00:00Z,30.2513,-88.0778,16.02,1111122 
DISL,ioos:station:DISL:DISL:1,2008-03-02T16:30:00Z,30.2513,-88.0778,16.71,1111122 
DISL,ioos:station:DISL:DISL:1,2008-03-02T17:00:00Z,30.2513,-88.0778,17.09,1111122 
DISL,ioos:station:DISL:DISL:1,2008-03-02T17:30:00Z,30.2513,-88.0778,17.37,1111122 
DISL,ioos:station:DISL:DISL:1,2008-03-02T18:00:00Z,30.2513,-88.0778,17.05,1111122 
DISL,ioos:station:DISL:DISL:1,2008-03-02T18:30:00Z,30.2513,-88.0778,15.89,1111122 
DISL,ioos:station:DISL:DISL:1,2008-03-02T19:00:00Z,30.2513,-88.0778,16.67,1111122 
DISL,ioos:station:DISL:DISL:1,2008-03-02T19:30:00Z,30.2513,-88.0778,17.22,1111122 
DISL,ioos:station:DISL:DISL:1,2008-03-02T20:00:00Z,30.2513,-88.0778,17.74,1111122 
DISL,ioos:station:DISL:DISL:1,2008-03-02T20:30:00Z,30.2513,-88.0778,17.57,1111122 
DISL,ioos:station:DISL:DISL:1,2008-03-02T21:00:00Z,30.2513,-88.0778,17.8,1111122 
DISL,ioos:station:DISL:DISL:1,2008-03-02T21:30:00Z,30.2513,-88.0778,17.8,1111122 
DISL,ioos:station:DISL:DISL:1,2008-03-02T22:00:00Z,30.2513,-88.0778,17.97,1111122 
DISL,ioos:station:DISL:DISL:1,2008-03-02T22:30:00Z,30.2513,-88.0778,18.08,1111122 
DISL,ioos:station:DISL:DISL:1,2008-03-02T23:00:00Z,30.2513,-88.0778,17.94,1111122 
DISL,ioos:station:DISL:DISL:1,2008-03-02T23:30:00Z,30.2513,-88.0778,17.88,1111122 
DISL,ioos:station:DISL:DISL:1,2008-03-03T00:00:00Z,30.2513,-88.0778,17.76,1111122 
DISL,ioos:station:DISL:DISL:1,2008-03-03T00:30:00Z,30.2513,-88.0778,17.66,1111122 
DISL,ioos:station:DISL:DISL:1,2008-03-03T01:00:00Z,30.2513,-88.0778,17.64,1111122 
DISL,ioos:station:DISL:DISL:1,2008-03-03T01:30:00Z,30.2513,-88.0778,17.7,1111122 
DISL,ioos:station:DISL:DISL:1,2008-03-03T02:00:00Z,30.2513,-88.0778,17.7,1111122 
DISL,ioos:station:DISL:DISL:1,2008-03-03T02:30:00Z,30.2513,-88.0778,17.63,1111122 
DISL,ioos:station:DISL:DISL:1,2008-03-03T03:00:00Z,30.2513,-88.0778,17.68,1111122 
DISL,ioos:station:DISL:DISL:1,2008-03-03T03:30:00Z,30.2513,-88.0778,17.67,1111122 
DISL,ioos:station:DISL:DISL:1,2008-03-03T04:00:00Z,30.2513,-88.0778,17.73,1111122 
DISL,ioos:station:DISL:DISL:1,2008-03-03T04:30:00Z,30.2513,-88.0778,17.69,1111122 
DISL,ioos:station:DISL:DISL:1,2008-03-03T05:00:00Z,30.2513,-88.0778,17.73,1111122 
DISL,ioos:station:DISL:DISL:1,2008-03-03T05:30:00Z,30.2513,-88.0778,17.71,1111122 
DISL,ioos:station:DISL:DISL:1,2008-03-03T06:00:00Z,30.2513,-88.0778,17.58,1111122 
DISL,ioos:station:DISL:DISL:1,2008-03-03T06:30:00Z,30.2513,-88.0778,17.63,1111122 
DISL,ioos:station:DISL:DISL:1,2008-03-03T07:00:00Z,30.2513,-88.0778,17.68,1111122 
DISL,ioos:station:DISL:DISL:1,2008-03-03T07:30:00Z,30.2513,-88.0778,17.51,1111122 
DISL,ioos:station:DISL:DISL:1,2008-03-03T08:00:00Z,30.2513,-88.0778,17.6,1111122 
DISL,ioos:station:DISL:DISL:1,2008-03-03T08:30:00Z,30.2513,-88.0778,17.55,1111122 
DISL,ioos:station:DISL:DISL:1,2008-03-03T09:00:00Z,30.2513,-88.0778,17.41,1111122 
DISL,ioos:station:DISL:DISL:1,2008-03-03T09:30:00Z,30.2513,-88.0778,17.3,1111122 
DISL,ioos:station:DISL:DISL:1,2008-03-03T10:00:00Z,30.2513,-88.0778,17.43,1111122 
DISL,ioos:station:DISL:DISL:1,2008-03-03T10:30:00Z,30.2513,-88.0778,17.41,1111122 
DISL,ioos:station:DISL:DISL:1,2008-03-03T11:00:00Z,30.2513,-88.0778,17.47,1111122 
DISL,ioos:station:DISL:DISL:1,2008-03-03T11:30:00Z,30.2513,-88.0778,17.55,1111122 
DISL,ioos:station:DISL:DISL:1,2008-03-03T12:00:00Z,30.2513,-88.0778,17.71,1111122 
DISL,ioos:station:DISL:DISL:1,2008-03-03T12:30:00Z,30.2513,-88.0778,17.72,1111122 
DISL,ioos:station:DISL:DISL:1,2008-03-03T13:00:00Z,30.2513,-88.0778,17.96,1111122 
DISL,ioos:station:DISL:DISL:1,2008-03-03T13:30:00Z,30.2513,-88.0778,18.17,1111122 
DISL,ioos:station:DISL:DISL:1,2008-03-03T14:00:00Z,30.2513,-88.0778,18.2,1111122 
DISL,ioos:station:DISL:DISL:1,2008-03-03T14:30:00Z,30.2513,-88.0778,18.62,1111122 
DISL,ioos:station:DISL:DISL:1,2008-03-03T15:00:00Z,30.2513,-88.0778,18.44,1111122 
DISL,ioos:station:DISL:DISL:1,2008-03-03T15:30:00Z,30.2513,-88.0778,18.64,1111122 
DISL,ioos:station:DISL:DISL:1,2008-03-03T16:00:00Z,30.2513,-88.0778,19.1,1111122 
DISL,ioos:station:DISL:DISL:1,2008-03-03T16:30:00Z,30.2513,-88.0778,19.29,1111122 
DISL,ioos:station:DISL:DISL:1,2008-03-03T17:00:00Z,30.2513,-88.0778,19.45,1111122 
DISL,ioos:station:DISL:DISL:1,2008-03-03T17:30:00Z,30.2513,-88.0778,19.56,1111122 
DISL,ioos:station:DISL:DISL:1,2008-03-03T18:00:00Z,30.2513,-88.0778,19.65,1111122 
DISL,ioos:station:DISL:DISL:1,2008-03-03T18:30:00Z,30.2513,-88.0778,19.41,1111122 
DISL,ioos:station:DISL:DISL:1,2008-03-03T19:00:00Z,30.2513,-88.0778,19.46,1111122 
DISL,ioos:station:DISL:DISL:1,2008-03-03T19:30:00Z,30.2513,-88.0778,19.5,1111122 
DISL,ioos:station:DISL:DISL:1,2008-03-03T20:00:00Z,30.2513,-88.0778,19.43,1111122 
DISL,ioos:station:DISL:DISL:1,2008-03-03T20:30:00Z,30.2513,-88.0778,19.15,1111122 
DISL,ioos:station:DISL:DISL:1,2008-03-03T21:00:00Z,30.2513,-88.0778,19.45,1111122 
DISL,ioos:station:DISL:DISL:1,2008-03-03T21:30:00Z,30.2513,-88.0778,19.3,1111122 
DISL,ioos:station:DISL:DISL:1,2008-03-03T22:00:00Z,30.2513,-88.0778,19.26,1111122 
DISL,ioos:station:DISL:DISL:1,2008-03-03T22:30:00Z,30.2513,-88.0778,19.2,1111122 
DISL,ioos:station:DISL:DISL:1,2008-03-03T23:00:00Z,30.2513,-88.0778,19.25,1111122 
DISL,ioos:station:DISL:DISL:1,2008-03-03T23:30:00Z,30.2513,-88.0778,19.48,1111122 
DISL,ioos:station:DISL:DISL:1,2008-03-04T00:00:00Z,30.2513,-88.0778,19.46,1111122 
DISL,ioos:station:DISL:DISL:1,2008-03-04T00:30:00Z,30.2513,-88.0778,19.63,1111122 
DISL,ioos:station:DISL:DISL:1,2008-03-04T01:00:00Z,30.2513,-88.0778,19.64,1111122 
DISL,ioos:station:DISL:DISL:1,2008-03-04T01:30:00Z,30.2513,-88.0778,19.72,1111122 
DISL,ioos:station:DISL:DISL:1,2008-03-04T02:00:00Z,30.2513,-88.0778,19.89,1111122 
DISL,ioos:station:DISL:DISL:1,2008-03-04T02:30:00Z,30.2513,-88.0778,19.82,1111122 
DISL,ioos:station:DISL:DISL:1,2008-03-04T03:00:00Z,30.2513,-88.0778,19.89,1111122 
DISL,ioos:station:DISL:DISL:1,2008-03-04T03:30:00Z,30.2513,-88.0778,19.94,1111122 
DISL,ioos:station:DISL:DISL:1,2008-03-04T04:00:00Z,30.2513,-88.0778,19.96,1111122 
DISL,ioos:station:DISL:DISL:1,2008-03-04T04:30:00Z,30.2513,-88.0778,20.06,1111122 
DISL,ioos:station:DISL:DISL:1,2008-03-04T05:00:00Z,30.2513,-88.0778,20.26,1111122 
DISL,ioos:station:DISL:DISL:1,2008-03-04T05:30:00Z,30.2513,-88.0778,20.24,1111122 
DISL,ioos:station:DISL:DISL:1,2008-03-04T06:00:00Z,30.2513,-88.0778,20.31,1111122 
DISL,ioos:station:DISL:DISL:1,2008-03-04T06:30:00Z,30.2513,-88.0778,20.34,1111122 
DISL,ioos:station:DISL:DISL:1,2008-03-04T07:00:00Z,30.2513,-88.0778,20.19,1111122 
DISL,ioos:station:DISL:DISL:1,2008-03-04T07:30:00Z,30.2513,-88.0778,20.23,1111122 
DISL,ioos:station:DISL:DISL:1,2008-03-04T08:00:00Z,30.2513,-88.0778,20.16,1111122 
DISL,ioos:station:DISL:DISL:1,2008-03-04T08:30:00Z,30.2513,-88.0778,20.08,1111122 
DISL,ioos:station:DISL:DISL:1,2008-03-04T09:00:00Z,30.2513,-88.0778,20.17,1111122 
DISL,ioos:station:DISL:DISL:1,2008-03-04T09:30:00Z,30.2513,-88.0778,18.68,1111122 
DISL,ioos:station:DISL:DISL:1,2008-03-04T10:00:00Z,30.2513,-88.0778,18.06,1111122 
DISL,ioos:station:DISL:DISL:1,2008-03-04T10:30:00Z,30.2513,-88.0778,17.69,1111122 
DISL,ioos:station:DISL:DISL:1,2008-03-04T11:00:00Z,30.2513,-88.0778,17.57,1111122 
DISL,ioos:station:DISL:DISL:1,2008-03-04T11:30:00Z,30.2513,-88.0778,17.04,1111122 
DISL,ioos:station:DISL:DISL:1,2008-03-04T12:00:00Z,30.2513,-88.0778,16.56,1111122 
DISL,ioos:station:DISL:DISL:1,2008-03-04T12:30:00Z,30.2513,-88.0778,16.3,1111122 
DISL,ioos:station:DISL:DISL:1,2008-03-04T13:00:00Z,30.2513,-88.0778,15.76,1111122 
DISL,ioos:station:DISL:DISL:1,2008-03-04T13:30:00Z,30.2513,-88.0778,15.06,1111122 
DISL,ioos:station:DISL:DISL:1,2008-03-04T14:00:00Z,30.2513,-88.0778,14.6,1111122 
DISL,ioos:station:DISL:DISL:1,2008-03-04T14:30:00Z,30.2513,-88.0778,14.44,1111122 
DISL,ioos:station:DISL:DISL:1,2008-03-04T15:00:00Z,30.2513,-88.0778,14.04,1111122 
DISL,ioos:station:DISL:DISL:1,2008-03-04T15:30:00Z,30.2513,-88.0778,14.19,1111122 
DISL,ioos:station:DISL:DISL:1,2008-03-04T16:00:00Z,30.2513,-88.0778,14.34,1111122 
DISL,ioos:station:DISL:DISL:1,2008-03-04T16:30:00Z,30.2513,-88.0778,14.36,1111122 
DISL,ioos:station:DISL:DISL:1,2008-03-04T17:00:00Z,30.2513,-88.0778,13.55,1111122 
DISL,ioos:station:DISL:DISL:1,2008-03-04T17:30:00Z,30.2513,-88.0778,13.51,1111122 
DISL,ioos:station:DISL:DISL:1,2008-03-04T18:00:00Z,30.2513,-88.0778,13.08,1111122 
DISL,ioos:station:DISL:DISL:1,2008-03-04T18:30:00Z,30.2513,-88.0778,12.75,1111122 
DISL,ioos:station:DISL:DISL:1,2008-03-04T19:00:00Z,30.2513,-88.0778,12.52,1111122 
DISL,ioos:station:DISL:DISL:1,2008-03-04T19:30:00Z,30.2513,-88.0778,12.9,1111122 
DISL,ioos:station:DISL:DISL:1,2008-03-04T20:00:00Z,30.2513,-88.0778,12.83,1111122 
DISL,ioos:station:DISL:DISL:1,2008-03-04T20:30:00Z,30.2513,-88.0778,12.96,1111122 
DISL,ioos:station:DISL:DISL:1,2008-03-04T21:00:00Z,30.2513,-88.0778,12.61,1111122 
DISL,ioos:station:DISL:DISL:1,2008-03-04T21:30:00Z,30.2513,-88.0778,12.36,1111122 
DISL,ioos:station:DISL:DISL:1,2008-03-04T22:00:00Z,30.2513,-88.0778,12.37,1111122 
DISL,ioos:station:DISL:DISL:1,2008-03-04T22:30:00Z,30.2513,-88.0778,12.16,1111122 
DISL,ioos:station:DISL:DISL:1,2008-03-04T23:00:00Z,30.2513,-88.0778,11.87,1111122 
DISL,ioos:station:DISL:DISL:1,2008-03-04T23:30:00Z,30.2513,-88.0778,11.35,1111122 
DISL,ioos:station:DISL:DISL:1,2008-03-05T00:00:00Z,30.2513,-88.0778,11.07,1111122 
DISL,ioos:station:DISL:DISL:1,2008-03-05T00:30:00Z,30.2513,-88.0778,10.57,1111122 
DISL,ioos:station:DISL:DISL:1,2008-03-05T01:00:00Z,30.2513,-88.0778,10.28,1111122 
DISL,ioos:station:DISL:DISL:1,2008-03-05T01:30:00Z,30.2513,-88.0778,10.05,1111122 
DISL,ioos:station:DISL:DISL:1,2008-03-05T02:00:00Z,30.2513,-88.0778,9.1,1111122 
DISL,ioos:station:DISL:DISL:1,2008-03-05T02:30:00Z,30.2513,-88.0778,8.73,1111122 
DISL,ioos:station:DISL:DISL:1,2008-03-05T03:00:00Z,30.2513,-88.0778,8.3,1111122 
DISL,ioos:station:DISL:DISL:1,2008-03-05T03:30:00Z,30.2513,-88.0778,8.07,1111122 
DISL,ioos:station:DISL:DISL:1,2008-03-05T04:00:00Z,30.2513,-88.0778,7.66,1111122 
DISL,ioos:station:DISL:DISL:1,2008-03-05T04:30:00Z,30.2513,-88.0778,7.39,1111122 
DISL,ioos:station:DISL:DISL:1,2008-03-05T05:00:00Z,30.2513,-88.0778,7.3,1111122 
DISL,ioos:station:DISL:DISL:1,2008-03-05T05:30:00Z,30.2513,-88.0778,7.26,1111122 
DISL,ioos:station:DISL:DISL:1,2008-03-05T06:00:00Z,30.2513,-88.0778,7.23,1111122 
DISL,ioos:station:DISL:DISL:1,2008-03-05T06:30:00Z,30.2513,-88.0778,6.97,1111122 
DISL,ioos:station:DISL:DISL:1,2008-03-05T07:00:00Z,30.2513,-88.0778,6.999,1111122 
DISL,ioos:station:DISL:DISL:1,2008-03-05T07:30:00Z,30.2513,-88.0778,6.921,1111122 
DISL,ioos:station:DISL:DISL:1,2008-03-05T08:00:00Z,30.2513,-88.0778,6.845,1111122 
DISL,ioos:station:DISL:DISL:1,2008-03-05T08:30:00Z,30.2513,-88.0778,6.69,1111122 
DISL,ioos:station:DISL:DISL:1,2008-03-05T09:00:00Z,30.2513,-88.0778,6.729,1111122 
DISL,ioos:station:DISL:DISL:1,2008-03-05T09:30:00Z,30.2513,-88.0778,6.623,1111122 
DISL,ioos:station:DISL:DISL:1,2008-03-05T10:00:00Z,30.2513,-88.0778,6.661,1111122 
DISL,ioos:station:DISL:DISL:1,2008-03-05T10:30:00Z,30.2513,-88.0778,6.489,1111122 
DISL,ioos:station:DISL:DISL:1,2008-03-05T11:00:00Z,30.2513,-88.0778,6.921,1111122 
DISL,ioos:station:DISL:DISL:1,2008-03-05T11:30:00Z,30.2513,-88.0778,6.652,1111122 
DISL,ioos:station:DISL:DISL:1,2008-03-05T12:00:00Z,30.2513,-88.0778,6.998,1111122 
DISL,ioos:station:DISL:DISL:1,2008-03-05T12:30:00Z,30.2513,-88.0778,6.757,1111122 
DISL,ioos:station:DISL:DISL:1,2008-03-05T13:00:00Z,30.2513,-88.0778,6.604,1111122 
DISL,ioos:station:DISL:DISL:1,2008-03-05T13:30:00Z,30.2513,-88.0778,6.95,1111122 
DISL,ioos:station:DISL:DISL:1,2008-03-05T14:00:00Z,30.2513,-88.0778,7.21,1111122 
DISL,ioos:station:DISL:DISL:1,2008-03-05T14:30:00Z,30.2513,-88.0778,7.67,1111122 
DISL,ioos:station:DISL:DISL:1,2008-03-05T15:00:00Z,30.2513,-88.0778,7.76,1111122 
DISL,ioos:station:DISL:DISL:1,2008-03-05T15:30:00Z,30.2513,-88.0778,8.04,1111122 
DISL,ioos:station:DISL:DISL:1,2008-03-05T16:00:00Z,30.2513,-88.0778,8.3,1111122 
DISL,ioos:station:DISL:DISL:1,2008-03-05T16:30:00Z,30.2513,-88.0778,8.34,1111122 
DISL,ioos:station:DISL:DISL:1,2008-03-05T17:00:00Z,30.2513,-88.0778,8.95,1111122 
DISL,ioos:station:DISL:DISL:1,2008-03-05T17:30:00Z,30.2513,-88.0778,8.89,1111122 
DISL,ioos:station:DISL:DISL:1,2008-03-05T18:00:00Z,30.2513,-88.0778,8.94,1111122 
DISL,ioos:station:DISL:DISL:1,2008-03-05T18:30:00Z,30.2513,-88.0778,9.15,1111122 
DISL,ioos:station:DISL:DISL:1,2008-03-05T19:00:00Z,30.2513,-88.0778,9.33,1111122 
DISL,ioos:station:DISL:DISL:1,2008-03-05T19:30:00Z,30.2513,-88.0778,9.41,1111122 
DISL,ioos:station:DISL:DISL:1,2008-03-05T20:00:00Z,30.2513,-88.0778,9.77,1111122 
DISL,ioos:station:DISL:DISL:1,2008-03-05T20:30:00Z,30.2513,-88.0778,10.81,1111122 
DISL,ioos:station:DISL:DISL:1,2008-03-05T21:00:00Z,30.2513,-88.0778,11.18,1111122 
DISL,ioos:station:DISL:DISL:1,2008-03-05T21:30:00Z,30.2513,-88.0778,11.48,1111122 
DISL,ioos:station:DISL:DISL:1,2008-03-05T22:00:00Z,30.2513,-88.0778,11.65,1111122 
DISL,ioos:station:DISL:DISL:1,2008-03-05T22:30:00Z,30.2513,-88.0778,11.77,1111122 
DISL,ioos:station:DISL:DISL:1,2008-03-05T23:00:00Z,30.2513,-88.0778,12.1,1111122 
DISL,ioos:station:DISL:DISL:1,2008-03-05T23:30:00Z,30.2513,-88.0778,11.98,1111122 
DISL,ioos:station:DISL:DISL:1,2008-03-06T00:00:00Z,30.2513,-88.0778,11.31,1111122 
DISL,ioos:station:DISL:DISL:1,2008-03-06T00:30:00Z,30.2513,-88.0778,11.66,1111122 
DISL,ioos:station:DISL:DISL:1,2008-03-06T01:00:00Z,30.2513,-88.0778,10.92,1111122 
DISL,ioos:station:DISL:DISL:1,2008-03-06T01:30:00Z,30.2513,-88.0778,11.16,1111122 
DISL,ioos:station:DISL:DISL:1,2008-03-06T02:00:00Z,30.2513,-88.0778,11.45,1111122 
DISL,ioos:station:DISL:DISL:1,2008-03-06T02:30:00Z,30.2513,-88.0778,11.46,1111122 
DISL,ioos:station:DISL:DISL:1,2008-03-06T03:00:00Z,30.2513,-88.0778,11.88,1111122 
DISL,ioos:station:DISL:DISL:1,2008-03-06T03:30:00Z,30.2513,-88.0778,12.31,1111122 
DISL,ioos:station:DISL:DISL:1,2008-03-06T04:00:00Z,30.2513,-88.0778,12.39,1111122 
DISL,ioos:station:DISL:DISL:1,2008-03-06T04:30:00Z,30.2513,-88.0778,12.35,1111122 
DISL,ioos:station:DISL:DISL:1,2008-03-06T05:00:00Z,30.2513,-88.0778,12.66,1111122 
DISL,ioos:station:DISL:DISL:1,2008-03-06T05:30:00Z,30.2513,-88.0778,12.62,1111122 
DISL,ioos:station:DISL:DISL:1,2008-03-06T06:00:00Z,30.2513,-88.0778,11.59,1111122 
DISL,ioos:station:DISL:DISL:1,2008-03-06T06:30:00Z,30.2513,-88.0778,11.4,1111122 
DISL,ioos:station:DISL:DISL:1,2008-03-06T07:00:00Z,30.2513,-88.0778,13.44,1111122 
DISL,ioos:station:DISL:DISL:1,2008-03-06T07:30:00Z,30.2513,-88.0778,13.32,1111122 
DISL,ioos:station:DISL:DISL:1,2008-03-06T08:00:00Z,30.2513,-88.0778,13.14,1111122 
DISL,ioos:station:DISL:DISL:1,2008-03-06T08:30:00Z,30.2513,-88.0778,12.22,1111122 
DISL,ioos:station:DISL:DISL:1,2008-03-06T09:00:00Z,30.2513,-88.0778,12.11,1111122 
DISL,ioos:station:DISL:DISL:1,2008-03-06T09:30:00Z,30.2513,-88.0778,12.24,1111122 
DISL,ioos:station:DISL:DISL:1,2008-03-06T10:00:00Z,30.2513,-88.0778,12.44,1111122 
DISL,ioos:station:DISL:DISL:1,2008-03-06T10:30:00Z,30.2513,-88.0778,12.55,1111122 
DISL,ioos:station:DISL:DISL:1,2008-03-06T11:00:00Z,30.2513,-88.0778,12.6,1111122 
DISL,ioos:station:DISL:DISL:1,2008-03-06T11:30:00Z,30.2513,-88.0778,12.42,1111122 
DISL,ioos:station:DISL:DISL:1,2008-03-06T12:00:00Z,30.2513,-88.0778,12.64,1111122 
DISL,ioos:station:DISL:DISL:1,2008-03-06T12:30:00Z,30.2513,-88.0778,12.78,1111122 
DISL,ioos:station:DISL:DISL:1,2008-03-06T13:00:00Z,30.2513,-88.0778,12.7,1111122 
DISL,ioos:station:DISL:DISL:1,2008-03-06T13:30:00Z,30.2513,-88.0778,12.61,1111122 
DISL,ioos:station:DISL:DISL:1,2008-03-06T14:00:00Z,30.2513,-88.0778,12.19,1111122 
DISL,ioos:station:DISL:DISL:1,2008-03-06T14:30:00Z,30.2513,-88.0778,12.3,1111122 
DISL,ioos:station:DISL:DISL:1,2008-03-06T15:00:00Z,30.2513,-88.0778,12.85,1111122 
DISL,ioos:station:DISL:DISL:1,2008-03-06T15:30:00Z,30.2513,-88.0778,13.2,1111122 
DISL,ioos:station:DISL:DISL:1,2008-03-06T16:00:00Z,30.2513,-88.0778,13.58,1111122 
DISL,ioos:station:DISL:DISL:1,2008-03-06T16:30:00Z,30.2513,-88.0778,14.07,1111122 
DISL,ioos:station:DISL:DISL:1,2008-03-06T17:00:00Z,30.2513,-88.0778,14.5,1111122 
DISL,ioos:station:DISL:DISL:1,2008-03-06T17:30:00Z,30.2513,-88.0778,14.87,1111122 
DISL,ioos:station:DISL:DISL:1,2008-03-06T18:00:00Z,30.2513,-88.0778,15.17,1111122 
DISL,ioos:station:DISL:DISL:1,2008-03-06T18:30:00Z,30.2513,-88.0778,15.91,1111122 
DISL,ioos:station:DISL:DISL:1,2008-03-06T19:00:00Z,30.2513,-88.0778,15.56,1111122 
DISL,ioos:station:DISL:DISL:1,2008-03-06T19:30:00Z,30.2513,-88.0778,15.94,1111122 
DISL,ioos:station:DISL:DISL:1,2008-03-06T20:00:00Z,30.2513,-88.0778,15.91,1111122 
DISL,ioos:station:DISL:DISL:1,2008-03-06T20:30:00Z,30.2513,-88.0778,15.81,1111122 
DISL,ioos:station:DISL:DISL:1,2008-03-06T21:00:00Z,30.2513,-88.0778,15.78,1111122 
DISL,ioos:station:DISL:DISL:1,2008-03-06T21:30:00Z,30.2513,-88.0778,15.95,1111122 
DISL,ioos:station:DISL:DISL:1,2008-03-06T22:00:00Z,30.2513,-88.0778,16.26,1111122 
DISL,ioos:station:DISL:DISL:1,2008-03-06T22:30:00Z,30.2513,-88.0778,16.39,1111122 
DISL,ioos:station:DISL:DISL:1,2008-03-06T23:00:00Z,30.2513,-88.0778,16.5,1111122 
DISL,ioos:station:DISL:DISL:1,2008-03-06T23:30:00Z,30.2513,-88.0778,16.55,1111122 
DISL,ioos:station:DISL:DISL:1,2008-03-07T00:00:00Z,30.2513,-88.0778,16.6,1111122 